Millville, NJ

9:13 PM EDT on July 25, 2016 (GMT -0400)
Millville Municipal

Weather History for KMIV - February, 2014

Change the Weather History Date:

Tuesday, February 18, 2014

  Actual Average Record
Temperature  
Mean Temperature 37 °F -  
Max Temperature 48 °F 43 °F 71 °F (1976)
Min Temperature 26 °F 26 °F -3 °F (1979)
Degree Days  
Heating Degree Days 28    
Moisture  
Dew Point 29 °F    
Average Humidity 89    
Maximum Humidity 100    
Minimum Humidity 48    
Precipitation  
Precipitation 0.12 in - - ()
Sea Level Pressure  
Sea Level Pressure 30.11 in    
Wind  
Wind Speed 4 mph (SE)    
Max Wind Speed 21 mph    
Max Gust Speed 25 mph    
Visibility 5 miles    
Events Fog , Rain , Snow    
Averages and records for this station are not official NWS values.
T = Trace of Precipitation, MM = Missing Value Source: NWS Daily Summary

Daily Weather History Graph

Daily Weather History Graph

Search for Another Location

Airport or City:

Trip Planner

Search our weather history database for the weather conditions in past years. The results will help you decide how hot, cold, wet, or windy it might be!

Date:

Astronomy

Feb. 18, 2014 Rise Set
Actual Time 6:48 AM EST 5:40 PM EST
Civil Twilight 6:21 AM EST 6:07 PM EST
Nautical Twilight 5:49 AM EST 6:39 PM EST
Astronomical Twilight 5:18 AM EST 7:10 PM EST
Moon 9:30 PM EST (2/18) 8:20 AM EST (2/18)
Length of Visible Light 11h 46m
Length of Day
10h 52m
Waning Gibbous, 87% of the Moon is Illuminated
Feb 18
Waning Gibbous
Feb 22
Last Quarter
Mar 1
New
Mar 8
First Quarter
Mar 16
Full

Hourly Weather History & Observations

Time (EST) Temp. Windchill Dew Point Humidity Pressure Visibility Wind Dir Wind Speed Gust Speed Precip Events Conditions
12:54 AM 28.0 °F 24.2 °F 19.0 °F 69% 30.29 in 10.0 mi WSW 3.5 mph - N/A   Clear
1:54 AM 28.0 °F - 21.0 °F 75% 30.26 in 10.0 mi Calm Calm - N/A   Mostly Cloudy
2:38 AM 28.0 °F - 21.9 °F 78% 30.25 in 3.0 mi Calm Calm - 0.00 in Snow Light Snow
2:43 AM 28.0 °F - 23.0 °F 81% 30.24 in 1.8 mi Calm Calm - 0.00 in Snow Light Snow
2:54 AM 28.0 °F - 23.0 °F 81% 30.24 in 1.2 mi Calm Calm - 0.00 in Snow Light Snow
3:03 AM 27.0 °F 21.6 °F 25.0 °F 92% 30.21 in 0.8 mi NE 4.6 mph - 0.00 in Snow Light Snow
3:25 AM 27.0 °F 23.0 °F 26.1 °F 96% 30.20 in 1.0 mi ENE 3.5 mph - 0.00 in Snow Light Snow
3:32 AM 27.0 °F 23.0 °F 25.0 °F 92% 30.19 in 0.8 mi East 3.5 mph - 0.00 in Snow Light Snow
3:54 AM 27.0 °F 20.5 °F 26.1 °F 96% 30.17 in 1.0 mi East 5.8 mph - 0.00 in Snow Light Snow
4:06 AM 27.0 °F 20.5 °F 27.0 °F 100% 30.16 in 2.5 mi ESE 5.8 mph - 0.00 in Snow Light Snow
4:13 AM 27.0 °F 21.6 °F 27.0 °F 100% 30.15 in 4.0 mi ESE 4.6 mph - 0.00 in Snow Light Snow
4:19 AM 28.0 °F 22.8 °F 27.0 °F 96% 30.15 in 4.0 mi ESE 4.6 mph - 0.00 in Snow Light Snow
4:38 AM 28.0 °F 22.8 °F 28.0 °F 100% 30.14 in 4.0 mi ESE 4.6 mph - 0.00 in Snow Light Snow
4:44 AM 28.9 °F 25.2 °F 28.0 °F 96% 30.14 in 2.5 mi ESE 3.5 mph - 0.00 in Snow Light Snow
4:54 AM 28.9 °F - 28.0 °F 96% 30.14 in 3.0 mi Calm Calm - 0.00 in Snow Light Snow
5:06 AM 28.9 °F - 28.0 °F 96% 30.14 in 1.8 mi Calm Calm - 0.00 in Snow Light Snow
5:17 AM 28.9 °F 19.8 °F 28.0 °F 96% 30.16 in 3.0 mi NW 10.4 mph - 0.00 in Snow Light Snow
5:36 AM 28.9 °F 23.9 °F 28.9 °F 100% 30.16 in 1.8 mi NNW 4.6 mph - 0.00 in Snow Light Snow
5:44 AM 28.9 °F 22.8 °F 28.0 °F 96% 30.16 in 1.8 mi NNW 5.8 mph - 0.00 in Snow Light Snow
5:54 AM 30.0 °F - 28.9 °F 96% 30.15 in 2.5 mi Calm Calm - 0.00 in Snow Light Snow
6:03 AM 30.0 °F - 30.0 °F 100% 30.14 in 3.0 mi Calm Calm - 0.00 in   Overcast
6:19 AM 30.9 °F 25.2 °F 28.9 °F 92% 30.14 in 6.0 mi North 5.8 mph - 0.00 in Rain Light Freezing Rain
6:47 AM 30.9 °F 26.2 °F 30.9 °F 100% 30.11 in 4.0 mi East 4.6 mph - 0.01 in Rain Light Freezing Rain
6:54 AM 30.9 °F 23.5 °F 30.9 °F 100% 30.10 in 5.0 mi East 8.1 mph - 0.01 in Rain Light Freezing Rain
7:02 AM 30.9 °F 25.2 °F 30.9 °F 100% 30.09 in 5.0 mi SE 5.8 mph - 0.01 in Rain Light Freezing Rain
7:13 AM 32.0 °F 27.5 °F 32.0 °F 100% 30.09 in 4.0 mi ESE 4.6 mph - 0.03 in Rain Light Freezing Rain
7:29 AM 32.0 °F - 30.9 °F 96% 30.09 in 6.0 mi Calm Calm - 0.05 in   Overcast
7:54 AM 32.0 °F 27.5 °F 32.0 °F 100% 30.07 in 5.0 mi SE 4.6 mph - 0.07 in   Mostly Cloudy
8:02 AM 33.1 °F 30.0 °F 32.0 °F 96% 30.07 in 4.0 mi NNW 3.5 mph - 0.01 in   Mostly Cloudy
8:13 AM 32.0 °F - 32.0 °F 100% 30.07 in 5.0 mi Calm Calm - 0.02 in   Overcast
8:44 AM 33.1 °F - 32.0 °F 96% 30.06 in 5.0 mi Calm Calm - 0.04 in   Mostly Cloudy
8:54 AM 33.1 °F 30.0 °F 32.0 °F 96% 30.05 in 3.0 mi East 3.5 mph - 0.04 in   Overcast
8:59 AM 33.1 °F 30.0 °F 33.1 °F 100% 30.04 in 1.8 mi ESE 3.5 mph - N/A   Overcast
9:11 AM 33.1 °F 30.0 °F 33.1 °F 100% 30.04 in 0.2 mi SE 3.5 mph - N/A Fog Fog
9:31 AM 35.1 °F 31.0 °F 35.1 °F 100% 30.04 in 1.0 mi Variable 4.6 mph - N/A   Mist
9:34 AM 36.0 °F 30.3 °F 35.1 °F 97% 30.04 in 3.0 mi WSW 6.9 mph - N/A   Mostly Cloudy
9:44 AM 37.9 °F 32.1 °F 36.0 °F 93% 30.03 in 10.0 mi SW 8.1 mph - N/A   Scattered Clouds
9:54 AM 39.0 °F 34.0 °F 36.0 °F 89% 30.03 in 10.0 mi Variable 6.9 mph 16.1 mph N/A   Partly Cloudy
10:54 AM 39.0 °F 31.4 °F 34.0 °F 82% 30.04 in 10.0 mi West 12.7 mph - N/A   Scattered Clouds
11:54 AM 42.1 °F 36.1 °F 34.0 °F 73% 30.03 in 10.0 mi West 10.4 mph - N/A   Clear
12:54 PM 45.0 °F 38.2 °F 34.0 °F 65% 30.02 in 10.0 mi West 15.0 mph - N/A   Clear
1:54 PM 48.0 °F - 33.1 °F 56% 30.02 in 10.0 mi WSW 16.1 mph 21.9 mph N/A   Partly Cloudy
2:54 PM 48.9 °F - 30.0 °F 48% 30.02 in 10.0 mi WSW 17.3 mph 25.3 mph N/A   Overcast
3:54 PM 48.9 °F - 30.0 °F 48% 30.04 in 10.0 mi WSW 20.7 mph 25.3 mph N/A   Clear
4:54 PM 46.9 °F - 30.0 °F 52% 30.05 in 10.0 mi West 8.1 mph - N/A   Clear
5:54 PM 39.0 °F 35.7 °F 28.0 °F 65% 30.06 in 10.0 mi West 4.6 mph - N/A   Clear
6:54 PM 30.9 °F - 28.0 °F 89% 30.10 in 10.0 mi Calm Calm - N/A   Clear
7:54 PM 30.0 °F - 27.0 °F 88% 30.12 in 10.0 mi Calm Calm - N/A   Clear
8:54 PM 32.0 °F - 27.0 °F 82% 30.10 in 10.0 mi Calm Calm - N/A   Clear
9:54 PM 28.0 °F - 26.1 °F 92% 30.11 in 10.0 mi Calm Calm - N/A   Clear
10:54 PM 26.1 °F - 24.1 °F 92% 30.11 in 10.0 mi Calm Calm - N/A   Clear
11:54 PM 32.0 °F 26.4 °F 28.0 °F 85% 30.11 in 10.0 mi SE 5.8 mph - N/A   Clear